�N����,����,����,����,����,�C��,���x,�~����,���Ǝ���,�S�V����,�ő�u�ԕ���,,,,,
,,,,,,,,,,����,����,����,�N��,,
yyyy/mm/dd,hh:mm:ss,(16),16����,m/s,��,%,mm,min,KW/�u,(16),16����,m/s,Time,,
2011/1/1,1:00:00,315,�k��,5.4,-0.9,75.8,0,0,0.01,315,�k��,9.7,45,,
2011/1/1,2:00:00,315,�k��,5.2,-1.3,73.3,0,0,0.01,315,�k��,10.2,3,,
2011/1/1,3:00:00,315,�k��,6.5,-1.3,76.7,0,0,0.01,315,�k��,11.4,51,,
2011/1/1,4:00:00,315,�k��,5.7,-1.8,73,0,0,0.01,315,�k��,10.2,31,,
2011/1/1,5:00:00,315,�k��,6.2,-1.4,70.6,0,0,0.01,293,���k��,10.6,9,,
2011/1/1,6:00:00,315,�k��,5.4,-1.2,73.4,0,0,0.01,315,�k��,10.6,10,,
2011/1/1,7:00:00,315,�k��,4.4,-1.2,74,0,0,0.01,315,�k��,10.2,29,,
2011/1/1,8:00:00,315,�k��,5.1,-1.2,70.6,0,0,0.05,315,�k��,9,32,,
2011/1/1,9:00:00,315,�k��,5.6,-0.6,68.1,0,17,0.11,315,�k��,9.9,41,,
2011/1/1,10:00:00,315,�k��,4.5,-0.2,64.8,0,60,0.19,315,�k��,9.3,28,,
2011/1/1,11:00:00,315,�k��,4.5,0.5,60.9,0,60,0.27,360,�k,9.4,58,,
2011/1/1,12:00:00,338,�k�k��,5.4,0.6,63.1,0,60,0.28,338,�k�k��,13.4,32,,
2011/1/1,13:00:00,338,�k�k��,7.3,0.6,62.3,0,60,0.31,338,�k�k��,13.8,57,,
2011/1/1,14:00:00,338,�k�k��,4.1,0.7,60.3,0,60,0.25,338,�k�k��,14.8,20,,
2011/1/1,15:00:00,338,�k�k��,6.8,0.2,61.5,0,60,0.21,338,�k�k��,15.3,10,,
2011/1/1,16:00:00,338,�k�k��,5,-1.1,66.5,0,1,0.05,315,�k��,11.4,4,,
2011/1/1,17:00:00,338,�k�k��,4.6,-0.9,69.3,0,0,0,338,�k�k��,10.6,20,,
2011/1/1,18:00:00,338,�k�k��,5.7,-0.6,65.8,0,0,0,338,�k�k��,11.4,11,,
2011/1/1,19:00:00,338,�k�k��,5.4,-0.9,67.6,0,0,0,338,�k�k��,10.5,45,,
2011/1/1,20:00:00,315,�k��,4.6,-1.7,67.5,0,0,0.01,338,�k�k��,9.9,0,,
2011/1/1,21:00:00,315,�k��,4,-1.9,69.8,0,0,0.01,338,�k�k��,7.4,2,,
2011/1/1,22:00:00,338,�k�k��,4.3,-1.3,72.3,0,0,0.01,338,�k�k��,8,57,,
2011/1/1,23:00:00,338,�k�k��,3.8,-1.7,73.9,0,0,0.01,338,�k�k��,9.8,16,,
2011/1/1,0:00:00,338,�k�k��,3.6,-1.4,71.7,0,0,0.01,338,�k�k��,10,13,,
2011/1/2,1:00:00,315,�k��,3.1,-2,72.2,0,0,0.01,315,�k��,5.2,36,,
2011/1/2,2:00:00,293,���k��,3.1,-3.3,70.3,0,0,0.01,315,�k��,4.7,13,,
2011/1/2,3:00:00,293,���k��,3,-4.6,70,0,0,0.01,315,�k��,5.1,45,,
2011/1/2,4:00:00,315,�k��,2.4,-3.5,66.6,0,0,0.01,315,�k��,4.7,11,,
2011/1/2,5:00:00,293,���k��,1.8,-4.5,72.3,0,0,0.01,315,�k��,4.3,16,,
2011/1/2,6:00:00,293,���k��,3.3,-4.6,73.7,0,0,0.01,293,���k��,4.2,58,,
2011/1/2,7:00:00,293,���k��,3.6,-5.2,72.2,0,0,0.01,293,���k��,5.2,2,,
2011/1/2,8:00:00,315,�k��,2.4,-5.5,71,0,0,0.05,293,���k��,6.3,17,,
2011/1/2,9:00:00,270,��,2.9,-4.9,69.3,0,42,0.24,293,���k��,4.2,31,,
2011/1/2,10:00:00,293,���k��,2.6,-2.5,58.8,0,60,0.38,293,���k��,5.2,5,,
2011/1/2,11:00:00,338,�k�k��,1.5,-0.5,51.3,0,60,0.47,293,���k��,4,3,,
2011/1/2,12:00:00,45,�k��,4.1,-0.9,51.2,0,60,0.5,45,�k��,6.1,45,,
2011/1/2,13:00:00,23,�k�k��,3,-0.8,57.3,0,60,0.47,45,�k��,5.9,20,,
2011/1/2,14:00:00,315,�k��,2.3,-1,54.3,0,60,0.37,45,�k��,5.2,1,,
2011/1/2,15:00:00,315,�k��,2.7,-1.5,55.6,0,60,0.23,315,�k��,5.1,49,,
2011/1/2,16:00:00,315,�k��,1.6,-3.4,62.5,0,12,0.07,315,�k��,4.4,3,,
2011/1/2,17:00:00,270,��,1.7,-4.4,77,0,0,0,293,���k��,2.2,8,,
2011/1/2,18:00:00,293,���k��,2.3,-8.4,80.5,0,0,0,293,���k��,3.1,59,,
2011/1/2,19:00:00,293,���k��,2.2,-10.4,83,0,0,0,293,���k��,3.3,32,,
2011/1/2,20:00:00,270,��,3.3,-10.5,87.9,0,0,0.01,270,��,4.3,55,,
2011/1/2,21:00:00,293,���k��,3,-10.8,87,0,0,0.01,270,��,4.5,35,,
2011/1/2,22:00:00,270,��,2.6,-9.7,86.2,0,0,0.01,270,��,4.3,6,,
2011/1/2,23:00:00,270,��,2.3,-10.6,85.8,0,0,0.01,270,��,4.3,38,,
2011/1/2,0:00:00,270,��,2.4,-11.1,89.5,0,0,0.01,315,�k��,5,28,,
2011/1/3,1:00:00,270,��,3.5,-10.6,89.2,0,0,0.01,293,���k��,4.6,57,,
2011/1/3,2:00:00,293,���k��,1.4,-10.7,85.9,0,0,0.01,293,���k��,4.2,43,,
2011/1/3,3:00:00,293,���k��,3.3,-11.1,86.3,0,0,0.01,293,���k��,4.2,56,,
2011/1/3,4:00:00,270,��,2.9,-11.9,89.4,0,0,0.01,270,��,4.4,37,,
2011/1/3,5:00:00,293,���k��,1.7,-8.2,81.1,0,0,0.01,293,���k��,4.9,33,,
2011/1/3,6:00:00,293,���k��,2.6,-9.4,85.4,0,0,0.01,248,���쐼,5.8,36,,
2011/1/3,7:00:00,270,��,1.5,-9.9,87.5,0,0,0.01,293,���k��,4,0,,
2011/1/3,8:00:00,270,��,1.8,-9.4,84,0,0,0.07,270,��,3.1,52,,
2011/1/3,9:00:00,293,���k��,1.6,-7.6,78.5,0,54,0.16,293,���k��,3,45,,
2011/1/3,10:00:00,248,���쐼,0.4,-4.5,70.9,0,60,0.32,270,��,2.1,0,,
2011/1/3,11:00:00,270,��,0.8,-5,71.1,0,60,0.23,270,��,1.5,21,,
2011/1/3,12:00:00,248,���쐼,0.6,-2.1,59.5,0,60,0.39,270,��,1.2,11,,
2011/1/3,13:00:00,45,�k��,0.4,0.8,57.2,0,60,0.42,45,�k��,1.1,58,,
2011/1/3,14:00:00,158,��쓌,1.4,-0.5,66,0,60,0.38,158,��쓌,3,13,,
2011/1/3,15:00:00,68,���k��,1.2,-0.4,77.9,0,60,0.24,113,���쓌,2.2,2,,
2011/1/3,16:00:00,293,���k��,0.7,-7.8,81.8,0,13,0.07,68,���k��,1.9,5,,
2011/1/3,17:00:00,270,��,2.3,-8.2,95.3,0,0,0,270,��,2.9,58,,
2011/1/3,18:00:00,293,���k��,1.5,-9.2,88.9,0,0,0,270,��,2.6,1,,
2011/1/3,19:00:00,293,���k��,2.8,-9.2,95.1,0,0,0,293,���k��,3.7,29,,
2011/1/3,20:00:00,270,��,3.2,-11,89.9,0,0,0.01,293,���k��,4.2,19,,
2011/1/3,21:00:00,293,���k��,3.1,-11.7,92.7,0,0,0.01,270,��,4,11,,
2011/1/3,22:00:00,293,���k��,2.6,-12.9,92.4,0,0,0.01,270,��,4.1,41,,
2011/1/3,23:00:00,293,���k��,2,-12.2,93.7,0,0,0.01,270,��,3.5,14,,
2011/1/3,0:00:00,248,���쐼,1.7,-12.4,92.2,0,0,0.01,270,��,3.3,37,,
2011/1/4,1:00:00,293,���k��,1.9,-13.6,91.5,0,0,0.01,270,��,3.6,26,,
2011/1/4,2:00:00,248,���쐼,1.7,-12.3,93.5,0,0,0.01,293,���k��,3.2,31,,
2011/1/4,3:00:00,270,��,3.5,-13.7,91.5,0,0,0.01,270,��,4.3,35,,
2011/1/4,4:00:00,293,���k��,3.1,-13.8,91,0,0,0.01,293,���k��,4.8,7,,
2011/1/4,5:00:00,293,���k��,2.5,-15,88.7,0,0,0.01,315,�k��,4.5,1,,
2011/1/4,6:00:00,270,��,2.2,-16.1,88,0,0,0.01,270,��,3.3,12,,
2011/1/4,7:00:00,270,��,2,-15.8,88.6,0,0,0.01,293,���k��,3.9,18,,
2011/1/4,8:00:00,270,��,2.1,-14.4,91.4,0,14,0.08,270,��,2.7,56,,
2011/1/4,9:00:00,293,���k��,1.5,-10.8,90.8,0,60,0.24,270,��,2.9,2,,
2011/1/4,10:00:00,315,�k��,0.9,-6,74.9,0,60,0.38,293,���k��,3.1,35,,
2011/1/4,11:00:00,293,���k��,1,-3.7,72.3,0,60,0.47,270,��,1.6,45,,
2011/1/4,12:00:00,45,�k��,2.4,-0.7,78.5,0,60,0.5,68,���k��,3.7,57,,
2011/1/4,13:00:00,23,�k�k��,2,-0.7,76.3,0,60,0.47,45,�k��,3.9,10,,
2011/1/4,14:00:00,68,���k��,2.3,-1.9,80.1,0,58,0.27,68,���k��,4,30,,
2011/1/4,15:00:00,23,�k�k��,0.5,-4.2,80.2,0,27,0.12,68,���k��,2.7,0,,
2011/1/4,16:00:00,293,���k��,1.3,-9.4,86.5,0,4,0.07,270,��,1.7,41,,
2011/1/4,17:00:00,270,��,1.3,-7.7,89.8,0,0,0,270,��,1.8,53,,
2011/1/4,18:00:00,293,���k��,1.5,-6,85.5,0,0,0,270,��,2,27,,
2011/1/4,19:00:00,338,�k�k��,1.2,-5.4,82.2,0,0,0,293,���k��,2.6,11,,
2011/1/4,20:00:00,315,�k��,2.3,-4.5,81.3,0,0,0.01,293,���k��,3.7,57,,
2011/1/4,21:00:00,293,���k��,3.9,-5.3,86.1,0,0,0.01,293,���k��,5.6,59,,
2011/1/4,22:00:00,293,���k��,3.7,-5.8,88.9,0,0,0.01,293,���k��,5.8,12,,
2011/1/4,23:00:00,293,���k��,3.5,-5.9,88.8,0,0,0.01,293,���k��,5.5,17,,
2011/1/4,0:00:00,293,���k��,4.1,-6.1,88.3,0,0,0.01,293,���k��,6.3,39,,
2011/1/5,1:00:00,338,�k�k��,1.7,-6.3,88.4,0,0,0.01,293,���k��,4.8,2,,
2011/1/5,2:00:00,315,�k��,1.8,-6.7,88.5,0,0,0.01,360,�k,3.2,35,,
2011/1/5,3:00:00,315,�k��,2.4,-7,85.6,0,0,0.01,315,�k��,3.9,9,,
2011/1/5,4:00:00,338,�k�k��,1.9,-6.9,84.4,0,0,0.01,315,�k��,3.5,12,,
2011/1/5,5:00:00,315,�k��,1.5,-7.2,84.1,0,0,0.01,315,�k��,3.3,15,,
2011/1/5,6:00:00,293,���k��,2.3,-7.3,85.8,0,0,0.01,315,�k��,3.8,20,,
2011/1/5,7:00:00,293,���k��,2.1,-7.1,85.3,0,0,0.01,315,�k��,3.3,46,,
2011/1/5,8:00:00,293,���k��,2.4,-6.8,85.1,0,0,0.05,293,���k��,3.8,59,,
2011/1/5,9:00:00,338,�k�k��,1.5,-5.7,82.6,0,14,0.11,293,���k��,4.6,8,,
2011/1/5,10:00:00,315,�k��,2.2,-5.1,81.6,0,60,0.19,315,�k��,4.2,50,,
2011/1/5,11:00:00,315,�k��,2.6,-5,84.3,0,60,0.2,338,�k�k��,4.2,54,,
2011/1/5,12:00:00,315,�k��,2.3,-5,88.4,0,60,0.2,293,���k��,3.7,31,,
2011/1/5,13:00:00,315,�k��,2.3,-4.7,90,0,60,0.2,315,�k��,3.5,12,,
2011/1/5,14:00:00,315,�k��,2.1,-4.1,89.4,0,60,0.2,315,�k��,3.9,29,,
2011/1/5,15:00:00,315,�k��,1.5,-3.7,91,0.5,8,0.1,315,�k��,3.5,24,,
2011/1/5,16:00:00,293,���k��,2,-4.1,91.6,0,0,0.04,315,�k��,3.6,30,,
2011/1/5,17:00:00,315,�k��,2.1,-4.6,89.8,0,0,0.01,315,�k��,4.2,4,,
2011/1/5,18:00:00,270,��,2.5,-5.1,90.8,0,0,0.01,293,���k��,5.3,12,,
2011/1/5,19:00:00,293,���k��,2.4,-6.4,90,0,0,0.01,293,���k��,4.4,55,,
2011/1/5,20:00:00,293,���k��,0.7,-6.9,94.1,0,0,0.01,293,���k��,5.2,7,,
2011/1/5,21:00:00,293,���k��,1.3,-7,92.2,0,0,0.01,293,���k��,3.4,38,,
2011/1/5,22:00:00,293,���k��,1.7,-6.4,92.4,0,0,0.01,293,���k��,3.7,34,,
2011/1/5,23:00:00,293,���k��,2.5,-7.7,94,0,0,0.01,293,���k��,4.9,38,,
2011/1/5,0:00:00,293,���k��,2.8,-9.1,94.5,0,0,0.01,293,���k��,3.5,55,,
2011/1/6,1:00:00,293,���k��,2.6,-9.6,94.7,0,0,0.01,293,���k��,4.9,7,,
2011/1/6,2:00:00,225,�쐼,1.5,-11.2,93.4,0,0,0.01,293,���k��,6.3,27,,
2011/1/6,3:00:00,293,���k��,3,-13.1,92.6,0,0,0.01,293,���k��,5.8,7,,
2011/1/6,4:00:00,270,��,2.6,-13.7,92.1,0,0,0.01,270,��,5.2,59,,
2011/1/6,5:00:00,293,���k��,3.4,-10.4,94.9,0,0,0.01,315,�k��,6.3,25,,
2011/1/6,6:00:00,270,��,1.9,-12.9,91.2,0,0,0.01,270,��,5.4,46,,
2011/1/6,7:00:00,270,��,2.6,-12.7,91.3,0,0,0.01,270,��,5.9,22,,
2011/1/6,8:00:00,270,��,2.2,-14.7,88.2,0,4,0.06,293,���k��,5.9,18,,
2011/1/6,9:00:00,248,���쐼,2.5,-12,91.7,0,56,0.2,270,��,4.7,33,,
2011/1/6,10:00:00,270,��,0.7,-10,89.6,0,60,0.34,270,��,5.2,26,,
2011/1/6,11:00:00,270,��,4.5,-2,53.1,0,60,0.48,270,��,7.1,47,,
2011/1/6,12:00:00,270,��,5.5,-2,47.5,0,60,0.51,270,��,8.7,34,,
2011/1/6,13:00:00,293,���k��,5.9,-1.6,45,0,59,0.48,293,���k��,8.8,53,,
2011/1/6,14:00:00,293,���k��,4,-2.2,44.9,0,50,0.31,293,���k��,10.3,5,,
2011/1/6,15:00:00,293,���k��,4.3,-3.4,45,0,60,0.34,270,��,10.5,17,,
2011/1/6,16:00:00,293,���k��,4.3,-4.7,49.1,0,18,0.07,293,���k��,11,12,,
2011/1/6,17:00:00,315,�k��,4,-6,65.6,0,0,0,315,�k��,8.4,42,,
2011/1/6,18:00:00,293,���k��,3.8,-7.3,58.4,0,0,0,315,�k��,8.4,25,,
2011/1/6,19:00:00,293,���k��,3.6,-8.8,54.3,0,0,0.01,315,�k��,8,6,,
2011/1/6,20:00:00,293,���k��,4.3,-8.6,39.6,0,0,0.01,270,��,7.7,32,,
2011/1/6,21:00:00,270,��,3.3,-11.3,43.4,0,0,0.01,293,���k��,5,2,,
2011/1/6,22:00:00,248,���쐼,6.1,-8.6,45.8,0,0,0.01,270,��,8.7,56,,
2011/1/6,23:00:00,248,���쐼,4.4,-9.1,55.3,0,0,0.01,270,��,9.3,4,,
2011/1/6,0:00:00,68,���k��,1.3,-12.7,66.6,0,0,0.01,248,���쐼,5,7,,
2011/1/7,1:00:00,270,��,1.6,-14.7,74.5,0,0,0.01,248,���쐼,2.2,52,,
2011/1/7,2:00:00,293,���k��,2,-15.3,83.6,0,0,0.01,293,���k��,3.6,59,,
2011/1/7,3:00:00,270,��,2.2,-19.4,88.7,0,0,0.01,315,�k��,4.1,13,,
2011/1/7,4:00:00,270,��,1.8,-18.3,88.5,0,0,0.01,270,��,2.9,38,,
2011/1/7,5:00:00,293,���k��,3.3,-19,86.2,0,0,0.01,293,���k��,4.5,49,,
2011/1/7,6:00:00,270,��,3.7,-19,87.2,0,0,0.01,315,�k��,5.2,9,,
2011/1/7,7:00:00,270,��,2.8,-20.8,83.8,0,0,0.01,270,��,4.7,3,,
2011/1/7,8:00:00,270,��,1.7,-19.7,86.6,0,15,0.09,270,��,3,18,,
2011/1/7,9:00:00,225,�쐼,2.1,-14.8,88.7,0,60,0.24,248,���쐼,2.7,54,,
2011/1/7,10:00:00,293,���k��,0.9,-9.7,41,0,60,0.4,293,���k��,2.5,47,,
2011/1/7,11:00:00,293,���k��,3.9,-8,33.1,0,60,0.5,270,��,6.8,37,,
2011/1/7,12:00:00,315,�k��,3.8,-7.5,32.3,0,60,0.53,293,���k��,8,18,,
2011/1/7,13:00:00,315,�k��,4.1,-7.5,33.8,0,60,0.47,315,�k��,7.5,35,,
2011/1/7,14:00:00,315,�k��,3.7,-7.7,38,0,60,0.38,293,���k��,6.5,54,,
2011/1/7,15:00:00,315,�k��,2,-9,41.6,0,39,0.18,293,���k��,6,3,,
2011/1/7,16:00:00,293,���k��,2.2,-10.3,41.1,0,0,0.04,293,���k��,4.2,0,,
2011/1/7,17:00:00,315,�k��,2.2,-10,45.4,0,0,0.01,360,�k,5.5,42,,
2011/1/7,18:00:00,270,��,1.4,-14.6,56.7,0,0,0.01,315,�k��,4.5,9,,
2011/1/7,19:00:00,225,�쐼,1.8,-15.2,68.3,0,0,0.01,270,��,2.3,35,,
2011/1/7,20:00:00,293,���k��,1.7,-15.2,62.5,0,0,0.01,293,���k��,2.9,58,,
2011/1/7,21:00:00,248,���쐼,1.3,-13.6,74.7,0,0,0.01,293,���k��,5.3,24,,
2011/1/7,22:00:00,315,�k��,2.6,-11.1,48,0,0,0.01,293,���k��,5.2,53,,
2011/1/7,23:00:00,270,��,0.6,-15.9,60.2,0,0,0.01,315,�k��,4.9,9,,
2011/1/7,0:00:00,248,���쐼,1.9,-13.8,59.2,0,0,0.01,315,�k��,6.5,32,,
2011/1/8,1:00:00,203,��쐼,1.2,-16.6,72,0,0,0.01,248,���쐼,3.1,2,,
2011/1/8,2:00:00,248,���쐼,1,-19.9,76.1,0,0,0.01,225,�쐼,2.2,7,,
2011/1/8,3:00:00,315,�k��,1.9,-14.1,74.5,0,0,0.01,270,��,3,22,,
2011/1/8,4:00:00,248,���쐼,0.9,-19.1,85.2,0,0,0.01,360,�k,2.4,18,,
2011/1/8,5:00:00,203,��쐼,1.5,-22.7,86.1,0,0,0.01,225,�쐼,2.9,11,,
2011/1/8,6:00:00,248,���쐼,1.9,-23.8,82,0,0,0.01,180,��,3.2,25,,
2011/1/8,7:00:00,225,�쐼,1,-23.7,84.6,0,0,0.01,270,��,3.1,7,,
2011/1/8,8:00:00,225,�쐼,0.9,-23.6,81.8,0,18,0.09,225,�쐼,3.3,32,,
2011/1/8,9:00:00,248,���쐼,2.2,-15.4,74.4,0,60,0.25,270,��,2.9,59,,
2011/1/8,10:00:00,315,�k��,2.5,-7,43.9,0,60,0.39,315,�k��,4.2,58,,
2011/1/8,11:00:00,315,�k��,3.3,-5.1,40.4,0,60,0.48,338,�k�k��,6.9,39,,
2011/1/8,12:00:00,315,�k��,4.4,-4.1,36.5,0,60,0.51,315,�k��,7.5,35,,
2011/1/8,13:00:00,293,���k��,3.4,-4.1,36.8,0,60,0.48,293,���k��,5.8,57,,
2011/1/8,14:00:00,315,�k��,2.9,-4.7,42.5,0,60,0.38,315,�k��,6.2,37,,
2011/1/8,15:00:00,293,���k��,2.8,-5.3,43.4,0,60,0.25,315,�k��,5.3,27,,
2011/1/8,16:00:00,293,���k��,1.3,-10.3,50.5,0,12,0.06,270,��,3.5,18,,
2011/1/8,17:00:00,135,�쓌,0.7,-12.2,69.6,0,0,0,270,��,1.5,3,,
2011/1/8,18:00:00,270,��,1.8,-15.1,76.8,0,0,0,270,��,2.5,18,,
2011/1/8,19:00:00,293,���k��,1.5,-15.2,80.9,0,0,0.01,270,��,2.6,16,,
2011/1/8,20:00:00,270,��,1.4,-15.2,85,0,0,0.01,270,��,2.4,20,,
2011/1/8,21:00:00,293,���k��,2.4,-17,83.6,0,0,0.01,270,��,3.2,51,,
2011/1/8,22:00:00,293,���k��,2,-17.2,85.6,0,0,0.01,293,���k��,4,28,,
2011/1/8,23:00:00,293,���k��,1.4,-17.8,85.9,0,0,0.01,293,���k��,4,16,,
2011/1/8,0:00:00,293,���k��,2.8,-17.3,88.4,0,0,0.01,270,��,3.9,58,,
2011/1/9,1:00:00,293,���k��,2.5,-18.3,87.1,0,0,0.01,270,��,5.4,7,,
2011/1/9,2:00:00,293,���k��,3,-18.9,87,0,0,0.01,293,���k��,4,55,,
2011/1/9,3:00:00,293,���k��,4,-17,88,0,0,0.01,270,��,4.8,58,,
2011/1/9,4:00:00,293,���k��,3.5,-17.4,87.4,0,0,0.01,293,���k��,4.8,25,,
2011/1/9,5:00:00,270,��,2.5,-16.5,88.1,0,0,0.01,270,��,4,13,,
2011/1/9,6:00:00,293,���k��,2.8,-17.6,87.3,0,0,0.01,293,���k��,4.5,24,,
2011/1/9,7:00:00,293,���k��,3.2,-16.5,89.3,0,0,0.01,293,���k��,5.1,30,,
2011/1/9,8:00:00,270,��,3.2,-15.5,89.9,0,13,0.08,270,��,4.4,39,,
2011/1/9,9:00:00,293,���k��,1.8,-13.7,81.1,0,60,0.24,270,��,4.5,5,,
2011/1/9,10:00:00,270,��,1.6,-10.6,71.9,0,60,0.38,293,���k��,3.4,10,,
2011/1/9,11:00:00,45,�k��,1.1,-6,69.3,0,60,0.48,315,�k��,2.7,22,,
2011/1/9,12:00:00,45,�k��,2.9,-4.8,60.6,0,60,0.53,45,�k��,3.8,52,,
2011/1/9,13:00:00,90,��,1.3,-2.5,59.5,0,60,0.49,45,�k��,4.3,14,,
2011/1/9,14:00:00,315,�k��,3.5,-3.9,50.7,0,60,0.4,315,�k��,5.1,57,,
2011/1/9,15:00:00,315,�k��,3.7,-5.2,61,0,60,0.25,315,�k��,6.8,22,,
2011/1/9,16:00:00,315,�k��,0.8,-7.8,63.8,0,13,0.07,315,�k��,6,8,,
2011/1/9,17:00:00,270,��,1.3,-14.9,78.7,0,0,0,270,��,2.2,56,,
2011/1/9,18:00:00,225,�쐼,1.6,-17.4,74.9,0,0,0,225,�쐼,2.4,18,,
2011/1/9,19:00:00,293,���k��,2.3,-13.9,89.6,0,0,0.01,270,��,3.4,18,,
2011/1/9,20:00:00,293,���k��,2.9,-15.2,89.2,0,0,0.01,270,��,4.4,59,,
2011/1/9,21:00:00,293,���k��,1.1,-18.6,89,0,0,0.01,270,��,4.1,20,,
2011/1/9,22:00:00,270,��,3.1,-21.3,83.8,0,0,0.01,270,��,3.7,50,,
2011/1/9,23:00:00,270,��,2,-18,86.7,0,0,0.01,270,��,3.6,14,,
2011/1/9,0:00:00,270,��,3.4,-20.2,82.8,0,0,0.01,248,���쐼,4.3,51,,
2011/1/10,1:00:00,293,���k��,2,-18.4,86.5,0,0,0.01,270,��,4.5,25,,
2011/1/10,2:00:00,270,��,2.6,-19.1,86.3,0,0,0.01,270,��,3.9,58,,
2011/1/10,3:00:00,293,���k��,1.8,-18.5,87,0,0,0.01,315,�k��,4,42,,
2011/1/10,4:00:00,270,��,2.7,-20,86,0,0,0.01,270,��,3.8,32,,
2011/1/10,5:00:00,270,��,2.1,-20.7,84.6,0,0,0.01,293,���k��,3.8,39,,
2011/1/10,6:00:00,270,��,3.4,-21,85.5,0,0,0.01,270,��,4.8,35,,
2011/1/10,7:00:00,293,���k��,3.2,-20.4,85.9,0,0,0.01,270,��,4.5,44,,
2011/1/10,8:00:00,270,��,3.1,-18.3,86.6,0,18,0.09,293,���k��,4.5,18,,
2011/1/10,9:00:00,293,���k��,2.2,-15.8,89.1,0,60,0.25,270,��,4.8,3,,
2011/1/10,10:00:00,248,���쐼,2.9,-12.9,89.1,0,60,0.39,293,���k��,4.6,18,,
2011/1/10,11:00:00,225,�쐼,3.5,-6.6,36.9,0,60,0.49,248,���쐼,6,24,,
2011/1/10,12:00:00,270,��,2.4,-5.5,31.3,0,60,0.53,225,�쐼,4.9,9,,
2011/1/10,13:00:00,315,�k��,2.2,-5.2,35.9,0,60,0.5,293,���k��,4.2,54,,
2011/1/10,14:00:00,270,��,1.3,-5.7,36,0,60,0.4,293,���k��,4.2,13,,
2011/1/10,15:00:00,248,���쐼,1.4,-5.7,35.1,0,60,0.27,225,�쐼,2.7,0,,
2011/1/10,16:00:00,225,�쐼,1.1,-12.2,54.5,0,21,0.08,180,��,3,12,,
2011/1/10,17:00:00,248,���쐼,1,-11.6,50,0,0,0,248,���쐼,1.9,47,,
2011/1/10,18:00:00,270,��,1.2,-14.3,75,0,0,0,315,�k��,1.8,46,,
2011/1/10,19:00:00,270,��,2.8,-17.8,73.2,0,0,0.01,270,��,3.5,54,,
2011/1/10,20:00:00,293,���k��,3.1,-15.6,75.6,0,0,0.01,293,���k��,3.6,55,,
2011/1/10,21:00:00,293,���k��,3,-16.7,77.4,0,0,0.01,270,��,4.5,44,,
2011/1/10,22:00:00,360,�k,0.7,-16.8,78.8,0,0,0.01,270,��,4.5,5,,
2011/1/10,23:00:00,293,���k��,2.4,-17.4,81.8,0,0,0.01,270,��,3.9,30,,
2011/1/10,0:00:00,293,���k��,3.4,-17.6,86.2,0,0,0.01,293,���k��,4.7,56,,
2011/1/11,1:00:00,270,��,3.1,-19.4,86.6,0,0,0.01,270,��,5.6,58,,
2011/1/11,2:00:00,293,���k��,1.9,-20.5,86.1,0,0,0.01,293,���k��,4.4,0,,
2011/1/11,3:00:00,270,��,3,-20,85.9,0,0,0.01,293,���k��,4.2,19,,
2011/1/11,4:00:00,270,��,2.4,-20.5,85.7,0,0,0.01,270,��,3.9,47,,
2011/1/11,5:00:00,293,���k��,2.5,-19.3,88.3,0,0,0.01,270,��,5.4,41,,
2011/1/11,6:00:00,293,���k��,2.4,-20.5,83.4,0,0,0.01,270,��,5.3,3,,
2011/1/11,7:00:00,293,���k��,1.4,-21.4,83.3,0,0,0.01,293,���k��,5.1,21,,
2011/1/11,8:00:00,293,���k��,3.2,-18,85.7,0,20,0.09,270,��,5.2,6,,
2011/1/11,9:00:00,270,��,2.2,-14.6,73.6,0,60,0.26,270,��,4.8,4,,
2011/1/11,10:00:00,293,���k��,1.6,-12.2,70.1,0,60,0.4,270,��,3.1,45,,
2011/1/11,11:00:00,338,�k�k��,2.5,-5.3,42.2,0,60,0.49,338,�k�k��,3.7,48,,
2011/1/11,12:00:00,248,���쐼,0.9,-5.1,38.8,0,60,0.53,293,���k��,2.9,39,,
2011/1/11,13:00:00,45,�k��,1.1,-3.4,40.9,0,60,0.5,45,�k��,2.3,53,,
2011/1/11,14:00:00,270,��,1.5,-5.5,39.1,0,60,0.41,360,�k,2.8,35,,
2011/1/11,15:00:00,315,�k��,0.9,-5.3,39.1,0,60,0.27,360,�k,2.6,25,,
2011/1/11,16:00:00,315,�k��,1,-6.7,48.3,0,22,0.1,293,���k��,3.3,26,,
2011/1/11,17:00:00,315,�k��,1.2,-12.5,65.4,0,0,0,270,��,2,38,,
2011/1/11,18:00:00,293,���k��,1.3,-14.9,78,0,0,0,270,��,1.8,42,,
2011/1/11,19:00:00,270,��,2.5,-14.3,78.7,0,0,0.01,293,���k��,3.7,25,,
2011/1/11,20:00:00,270,��,2.4,-17.7,82.8,0,0,0.01,270,��,3.2,12,,
2011/1/11,21:00:00,270,��,2.2,-17.3,89,0,0,0.01,270,��,3.4,48,,
2011/1/11,22:00:00,270,��,2.1,-18.8,86.8,0,0,0.01,293,���k��,3.1,45,,
2011/1/11,23:00:00,270,��,2.9,-18.7,88.4,0,0,0.01,270,��,3.7,58,,
2011/1/11,0:00:00,293,���k��,2.7,-18.1,88,0,0,0.01,270,��,4,3,,
2011/1/12,1:00:00,293,���k��,2.9,-18.8,86.9,0,0,0.01,293,���k��,4.8,45,,
2011/1/12,2:00:00,293,���k��,2.8,-17.9,87.2,0,0,0.01,293,���k��,4.6,25,,
2011/1/12,3:00:00,293,���k��,2.7,-18.1,86,0,0,0.01,270,��,4.5,17,,
2011/1/12,4:00:00,293,���k��,1.7,-17.7,87.7,0,0,0.01,293,���k��,3.4,21,,
2011/1/12,5:00:00,270,��,1.8,-17.5,87.7,0,0,0.01,270,��,3.4,49,,
2011/1/12,6:00:00,270,��,2.4,-17.4,86.1,0,0,0.01,270,��,3.6,51,,
2011/1/12,7:00:00,293,���k��,1,-14.8,76.7,0,0,0.01,315,�k��,3.9,37,,
2011/1/12,8:00:00,293,���k��,1.5,-14.3,77.7,0,0,0.05,315,�k��,4.8,7,,
2011/1/12,9:00:00,293,���k��,2.8,-12,70.4,0,51,0.2,293,���k��,3.9,55,,
2011/1/12,10:00:00,270,��,2.5,-10.6,72.3,0,60,0.27,315,�k��,4.5,7,,
2011/1/12,11:00:00,293,���k��,2.6,-8.5,62.9,0,60,0.25,315,�k��,4.7,20,,
2011/1/12,12:00:00,315,�k��,2.3,-7.3,59.9,0,60,0.26,293,���k��,4.9,11,,
2011/1/12,13:00:00,293,���k��,3.4,-7.3,62.6,0,44,0.16,315,�k��,5.9,7,,
2011/1/12,14:00:00,293,���k��,3.3,-8.4,90.7,0,0,0.06,315,�k��,5.4,58,,
2011/1/12,15:00:00,293,���k��,4.4,-8.5,91,0,0,0.05,293,���k��,7.6,38,,
2011/1/12,16:00:00,293,���k��,4.7,-8.3,93.3,0,0,0.02,293,���k��,7.1,19,,
2011/1/12,17:00:00,315,�k��,4.5,-7.8,93.1,0,0,0.01,315,�k��,8.5,44,,
2011/1/12,18:00:00,315,�k��,5.4,-7.7,93.3,0,0,0.01,315,�k��,9,34,,
2011/1/12,19:00:00,315,�k��,5.8,-8.1,92.2,0,0,0.01,315,�k��,11.7,25,,
2011/1/12,20:00:00,315,�k��,5.4,-7.3,92.3,0,0,0.01,315,�k��,10.1,17,,
2011/1/12,21:00:00,293,���k��,6.6,-7.1,91.3,0,0,0.01,293,���k��,11.5,50,,
2011/1/12,22:00:00,293,���k��,6.9,-7.2,90.9,0,0,0.01,293,���k��,13.6,28,,
2011/1/12,23:00:00,315,�k��,3.9,-6.7,87.1,0,0,0.01,293,���k��,11.2,7,,
2011/1/12,0:00:00,315,�k��,3.8,-6.6,87.2,0,0,0.01,293,���k��,7.6,13,,
2011/1/13,1:00:00,293,���k��,4.4,-7.5,87.2,0,0,0.01,293,���k��,8.3,50,,
2011/1/13,2:00:00,293,���k��,3.9,-8.5,85.3,0,0,0.01,315,�k��,7.4,43,,
2011/1/13,3:00:00,293,���k��,3.5,-9.5,80.1,0,0,0.01,315,�k��,6.1,42,,
2011/1/13,4:00:00,293,���k��,3.1,-14.9,80.6,0,0,0.01,315,�k��,7.4,17,,
2011/1/13,5:00:00,293,���k��,3.3,-12,82.3,0,0,0.01,293,���k��,4.8,31,,
2011/1/13,6:00:00,315,�k��,2.7,-12,73.4,0,0,0.01,293,���k��,4.8,10,,
2011/1/13,7:00:00,293,���k��,3.4,-10.5,73.8,0,0,0.01,293,���k��,6.3,29,,
2011/1/13,8:00:00,293,���k��,2.4,-12.6,80.5,0,17,0.08,293,���k��,5,3,,
2011/1/13,9:00:00,315,�k��,1.7,-8.6,63.1,0,60,0.25,315,�k��,5.4,25,,
2011/1/13,10:00:00,338,�k�k��,3.1,-6,52.9,1,60,0.4,315,�k��,6.5,56,,
2011/1/13,11:00:00,338,�k�k��,4.4,-5.3,48.3,5.5,60,0.5,338,�k�k��,8.2,52,,
2011/1/13,12:00:00,338,�k�k��,3.5,-5.1,50.2,1,60,0.45,338,�k�k��,7.2,47,,
2011/1/13,13:00:00,315,�k��,4.3,-5,45.5,0,57,0.38,338,�k�k��,7.8,26,,
2011/1/13,14:00:00,315,�k��,2.5,-5.8,44.5,0,55,0.31,315,�k��,6.7,8,,
2011/1/13,15:00:00,315,�k��,3.1,-6.4,48.5,0,41,0.16,315,�k��,5.4,53,,
2011/1/13,16:00:00,293,���k��,2.1,-8.7,59.4,0,29,0.1,315,�k��,5.6,17,,
2011/1/13,17:00:00,270,��,2.7,-13,79.1,0,0,0.01,293,���k��,3.3,1,,
2011/1/13,18:00:00,270,��,2.7,-15.1,84.1,0,0,0,270,��,3.3,19,,
2011/1/13,19:00:00,293,���k��,2.5,-17.7,82.4,0,0,0.01,293,���k��,3.9,42,,
2011/1/13,20:00:00,270,��,3.6,-18.1,84.4,0,0,0.01,293,���k��,4.6,51,,
2011/1/13,21:00:00,293,���k��,2.5,-21.6,81.8,0,0,0.01,293,���k��,4.3,0,,
2011/1/13,22:00:00,270,��,3.5,-20.5,88.3,0,0,0.01,270,��,4.6,50,,
2011/1/13,23:00:00,315,�k��,1.1,-20.6,83.8,0,0,0.01,270,��,4.8,17,,
2011/1/13,0:00:00,293,���k��,2.2,-21.9,84.6,0,0,0.01,293,���k��,4.1,24,,
2011/1/14,1:00:00,293,���k��,1.3,-21.7,83.7,0,0,0.01,270,��,4.6,29,,
2011/1/14,2:00:00,270,��,1.7,-22.4,82.3,0,0,0.01,270,��,5.5,20,,
2011/1/14,3:00:00,270,��,2.9,-22.8,83,0,0,0.01,248,���쐼,4.9,28,,
2011/1/14,4:00:00,270,��,1.1,-21.7,83.9,0,0,0.01,270,��,3.2,18,,
2011/1/14,5:00:00,270,��,3.4,-23.2,82,0,0,0.01,270,��,4.1,56,,
2011/1/14,6:00:00,293,���k��,2.7,-21.7,83.5,0,0,0.01,293,���k��,4.6,37,,
2011/1/14,7:00:00,270,��,3.4,-21.7,84.5,0,0,0.02,293,���k��,4.9,59,,
2011/1/14,8:00:00,293,���k��,3.1,-21.5,84.7,0,16,0.09,293,���k��,5.2,17,,
2011/1/14,9:00:00,270,��,2.4,-18.9,84.7,0,60,0.25,293,���k��,3.6,3,,
2011/1/14,10:00:00,248,���쐼,1,-15.5,79,0,60,0.39,293,���k��,3.2,16,,
2011/1/14,11:00:00,203,��쐼,1.9,-6.9,39.8,0,60,0.5,225,�쐼,4.2,33,,
2011/1/14,12:00:00,270,��,3.3,-6.7,38,0,60,0.54,270,��,4.3,56,,
2011/1/14,13:00:00,225,�쐼,3.9,-6.3,41.3,0,60,0.51,225,�쐼,6.4,30,,
2011/1/14,14:00:00,203,��쐼,2.7,-5.9,40.9,0,60,0.42,225,�쐼,6.7,11,,
2011/1/14,15:00:00,248,���쐼,3,-7.7,40.5,0,60,0.29,248,���쐼,5.8,11,,
2011/1/14,16:00:00,248,���쐼,3.7,-8.7,50.6,0,28,0.11,248,���쐼,6.4,42,,
2011/1/14,17:00:00,225,�쐼,2.3,-9.5,51.5,0,0,0.01,248,���쐼,4.9,15,,
2011/1/14,18:00:00,225,�쐼,3.3,-14.1,69.7,0,0,0.01,225,�쐼,3.8,58,,
2011/1/14,19:00:00,293,���k��,1.5,-22.6,67.7,0,0,0.01,225,�쐼,4.1,8,,
2011/1/14,20:00:00,270,��,3,-17.7,75.5,0,0,0.01,270,��,3.6,59,,
2011/1/14,21:00:00,270,��,1.9,-19.9,80.7,0,0,0.01,270,��,4,36,,
2011/1/14,22:00:00,270,��,2.8,-20.5,85.2,0,0,0.01,270,��,4.2,59,,
2011/1/14,23:00:00,315,�k��,1.1,-20.9,83.9,0,0,0.01,270,��,4.3,4,,
2011/1/14,0:00:00,293,���k��,2.2,-21.2,83,0,0,0.01,270,��,4.4,20,,
2011/1/15,1:00:00,270,��,3.2,-22,83.8,0,0,0.01,270,��,4.4,20,,
2011/1/15,2:00:00,270,��,3.4,-23.1,80.1,0,0,0.01,293,���k��,4.9,50,,
2011/1/15,3:00:00,293,���k��,3.7,-22.5,82,0,0,0.01,270,��,5.6,56,,
2011/1/15,4:00:00,293,���k��,1.1,-23.1,80.7,0,0,0.01,270,��,5.6,4,,
2011/1/15,5:00:00,293,���k��,3.1,-21,83.4,0,0,0.01,293,���k��,5.7,31,,
2011/1/15,6:00:00,293,���k��,2.5,-22,83.8,0,0,0.01,293,���k��,4.7,25,,
2011/1/15,7:00:00,270,��,3.4,-23.6,81.4,0,0,0.02,270,��,5.4,41,,
2011/1/15,8:00:00,270,��,3.7,-22.5,78.6,0,21,0.09,270,��,5.4,48,,
2011/1/15,9:00:00,270,��,3,-17.9,73.9,0,60,0.27,248,���쐼,5.2,21,,
2011/1/15,10:00:00,293,���k��,0.7,-11.9,61.8,0,60,0.42,270,��,3.7,32,,